TimeHDT,TemperatureF,Dew PointF,Humidity,Sea Level PressureIn,VisibilityMPH,Wind Direction,Wind SpeedMPH,Gust SpeedMPH,PrecipitationIn,Events,Conditions,WindDirDegrees,DateUTC
12:16 AM,37.4,30.2,75,29.33,10.0,Calm,Calm,-,N/A,,Overcast,0,2014-04-02 09:16:00
12:36 AM,37.4,30.2,75,29.33,10.0,Calm,Calm,-,N/A,,Overcast,0,2014-04-02 09:36:00
12:56 AM,37.4,30.2,75,29.33,10.0,Calm,Calm,-,N/A,,Overcast,0,2014-04-02 09:56:00
1:16 AM,37.4,30.2,75,29.33,10.0,Calm,Calm,-,N/A,,Overcast,0,2014-04-02 10:16:00
1:36 AM,37.4,32.0,81,29.33,10.0,Calm,Calm,-,N/A,,Overcast,0,2014-04-02 10:36:00
1:56 AM,37.4,30.2,75,29.33,10.0,Calm,Calm,-,N/A,,Overcast,0,2014-04-02 10:56:00
2:16 AM,37.4,30.2,75,29.34,10.0,SE,3.5,-,N/A,,Overcast,140,2014-04-02 11:16:00
3:56 AM,37.4,30.2,75,29.34,9.0,South,6.9,-,N/A,,Overcast,170,2014-04-02 12:56:00
4:16 AM,37.4,30.2,75,29.34,9.0,East,3.5,-,N/A,,Overcast,100,2014-04-02 13:16:00
4:36 AM,37.4,30.2,75,29.33,3.0,Calm,Calm,-,N/A,,Overcast,0,2014-04-02 13:36:00
4:56 AM,37.4,30.2,75,29.33,5.0,Calm,Calm,-,N/A,,Overcast,0,2014-04-02 13:56:00
5:16 AM,37.4,30.2,75,29.33,4.0,Calm,Calm,-,N/A,,Overcast,0,2014-04-02 14:16:00
5:36 AM,37.4,32.0,81,29.32,3.0,WSW,4.6,-,N/A,,Overcast,240,2014-04-02 14:36:00
5:56 AM,39.2,33.8,81,29.31,9.0,East,5.8,-,N/A,,Overcast,80,2014-04-02 14:56:00
6:16 AM,39.2,33.8,81,29.32,8.0,East,8.1,-,N/A,,Overcast,80,2014-04-02 15:16:00
6:36 AM,39.2,33.8,81,29.33,6.0,SSE,5.8,-,N/A,,Overcast,150,2014-04-02 15:36:00
6:56 AM,39.2,33.8,81,29.32,5.0,East,5.8,-,N/A,,Overcast,90,2014-04-02 15:56:00
7:16 AM,39.2,33.8,81,29.32,5.0,East,8.1,-,N/A,,Overcast,90,2014-04-02 16:16:00
7:36 AM,39.2,33.8,81,29.31,5.0,East,5.8,-,N/A,,Overcast,80,2014-04-02 16:36:00
7:56 AM,39.2,33.8,81,29.31,3.0,East,5.8,-,N/A,,Overcast,90,2014-04-02 16:56:00
8:16 AM,39.2,33.8,81,29.32,5.0,SSE,3.5,-,N/A,,Overcast,150,2014-04-02 17:16:00
8:56 AM,39.2,32.0,75,29.30,10.0,NE,6.9,-,N/A,,Overcast,50,2014-04-02 17:56:00
9:16 AM,39.2,30.2,70,29.30,10.0,SSE,4.6,-,N/A,,Overcast,150,2014-04-02 18:16:00
9:36 AM,39.2,30.2,70,29.31,10.0,SSE,6.9,-,N/A,,Overcast,160,2014-04-02 18:36:00
9:56 AM,39.2,30.2,70,29.31,9.0,South,10.4,-,N/A,,Overcast,190,2014-04-02 18:56:00
10:16 AM,39.2,30.2,70,29.31,8.0,SSE,13.8,-,N/A,,Overcast,160,2014-04-02 19:16:00
10:36 AM,39.2,30.2,70,29.30,8.0,SE,9.2,-,N/A,,Overcast,130,2014-04-02 19:36:00
10:56 AM,39.2,32.0,75,29.29,7.0,ESE,10.4,-,N/A,,Overcast,120,2014-04-02 19:56:00
11:16 AM,39.2,32.0,75,29.29,7.0,SE,17.3,-,N/A,,Overcast,140,2014-04-02 20:16:00
11:36 AM,39.2,33.8,81,29.28,10.0,SE,19.6,-,N/A,,Overcast,140,2014-04-02 20:36:00
11:56 AM,37.4,32.0,81,29.28,7.0,SE,20.7,-,N/A,,Overcast,130,2014-04-02 20:56:00
12:16 PM,37.4,32.0,81,29.27,8.0,SE,13.8,-,N/A,,Overcast,130,2014-04-02 21:16:00
12:36 PM,37.4,32.0,81,29.27,5.0,SE,13.8,-,N/A,,Overcast,130,2014-04-02 21:36:00
12:56 PM,37.4,30.2,75,29.26,4.0,ESE,13.8,-,N/A,,Overcast,110,2014-04-02 21:56:00
1:16 PM,37.4,30.2,75,29.24,4.0,East,11.5,-,N/A,,Overcast,100,2014-04-02 22:16:00
1:36 PM,37.4,32.0,81,29.23,3.0,East,10.4,-,N/A,,Overcast,90,2014-04-02 22:36:00
1:56 PM,39.2,32.0,75,29.22,3.0,East,11.5,-,N/A,,Overcast,100,2014-04-02 22:56:00
2:16 PM,39.2,32.0,75,29.20,2.5,East,11.5,-,N/A,,Overcast,100,2014-04-02 23:16:00
2:36 PM,39.2,32.0,75,29.18,3.0,East,15.0,-,N/A,,Overcast,80,2014-04-02 23:36:00
2:56 PM,39.2,32.0,75,29.17,3.0,East,12.7,19.6,N/A,,Overcast,90,2014-04-02 23:56:00
3:16 PM,41.0,33.8,76,29.16,3.0,East,12.7,-,N/A,,Overcast,90,2014-04-03 00:16:00
3:36 PM,42.8,33.8,70,29.14,5.0,ESE,13.8,-,N/A,,Overcast,110,2014-04-03 00:36:00
3:56 PM,42.8,33.8,70,29.12,2.0,East,11.5,-,N/A,,Overcast,100,2014-04-03 00:56:00
4:36 PM,44.6,35.6,71,29.10,1.8,East,11.5,19.6,N/A,,Overcast,100,2014-04-03 01:36:00
4:56 PM,44.6,35.6,71,29.09,1.0,East,10.4,-,N/A,,Overcast,100,2014-04-03 01:56:00
5:16 PM,44.6,37.4,76,29.07,1.8,ESE,9.2,-,N/A,,Overcast,110,2014-04-03 02:16:00
5:36 PM,44.6,37.4,76,29.07,2.5,SSE,4.6,-,N/A,,Overcast,160,2014-04-03 02:36:00
5:56 PM,44.6,37.4,76,29.06,2.0,SE,5.8,-,N/A,,Overcast,130,2014-04-03 02:56:00
6:16 PM,44.6,37.4,76,29.06,5.0,SSW,8.1,-,N/A,,Overcast,210,2014-04-03 03:16:00
6:36 PM,44.6,37.4,76,29.06,3.0,SSW,6.9,-,N/A,,Overcast,210,2014-04-03 03:36:00
6:56 PM,44.6,37.4,76,29.05,3.0,South,3.5,-,N/A,,Overcast,170,2014-04-03 03:56:00
7:16 PM,44.6,37.4,76,29.05,4.0,Calm,Calm,-,N/A,,Overcast,0,2014-04-03 04:16:00
7:36 PM,44.6,37.4,76,29.04,7.0,ESE,3.5,-,N/A,,Overcast,120,2014-04-03 04:36:00
7:56 PM,44.6,35.6,71,29.03,10.0,SE,3.5,-,N/A,,Overcast,140,2014-04-03 04:56:00
8:16 PM,42.8,35.6,76,29.03,10.0,SE,3.5,-,N/A,,Overcast,140,2014-04-03 05:16:00
8:36 PM,42.8,35.6,76,29.03,10.0,South,5.8,-,N/A,,Overcast,190,2014-04-03 05:36:00
8:56 PM,42.8,33.8,70,29.03,10.0,SW,6.9,-,N/A,,Overcast,220,2014-04-03 05:56:00
9:16 PM,42.8,35.6,76,29.03,10.0,Calm,Calm,-,N/A,,Overcast,0,2014-04-03 06:16:00
9:36 PM,42.8,35.6,76,29.03,10.0,SE,4.6,-,N/A,,Overcast,140,2014-04-03 06:36:00
9:56 PM,41.0,33.8,76,29.03,10.0,SSE,3.5,-,N/A,,Overcast,160,2014-04-03 06:56:00
10:16 PM,41.0,33.8,76,29.03,10.0,South,5.8,-,N/A,,Overcast,170,2014-04-03 07:16:00
10:36 PM,41.0,33.8,76,29.03,10.0,SW,9.2,-,N/A,,Mostly Cloudy,220,2014-04-03 07:36:00
10:56 PM,41.0,33.8,76,29.03,10.0,SW,10.4,-,N/A,,Overcast,220,2014-04-03 07:56:00
11:16 PM,41.0,33.8,76,29.02,10.0,SW,13.8,-,N/A,,Overcast,230,2014-04-03 08:16:00
11:36 PM,41.0,33.8,76,29.03,10.0,SW,11.5,-,N/A,,Overcast,220,2014-04-03 08:36:00
11:56 PM,39.2,33.8,81,29.03,10.0,SW,8.1,-,N/A,,Overcast,230,2014-04-03 08:56:00